Tracking 27111 objects as of 28-Mar-2023
HD Live streaming from Space Station
objects crossing your sky now

ARIANE 5 R/B

Track ARIANE 5 R/B now!


NORAD ID: 40273
Int'l Code: 2014-062C
Perigee: 253.7 km
Apogee: 33,100.6 km
Inclination: 6.3 °
Period: 580.4 minutes
Semi major axis: 23048 km
RCS: Unknown
Launch date: October 16, 2014
Source: France (FR)
Launch site: FRENCH GUIANA (FRGUI)

Note: This is a ROCKET BODY
Your satellite tracking list
Your tracking list is empty




NASA's NSSDC Master Catalog

Two Line Element Set (TLE):
1 40273U 14062C   23086.53399633  .00004429  00000-0  10334-2 0  9991
2 40273   6.2695 263.7775 7125712 332.9252   3.1270  2.48112388 73464
Source of the keplerian elements: AFSPC